Regional Weather Roundup
Issued by NWS

Home | Current Version | Previous Version | Text Only | Print | Product List | Glossary On
Versions: 1 2 3 4 5 6 7 8 9 10 11 12 13 14 15 16 17 18 19 20 21 22 23 24 25 26 27 28 29 30 31 32 33 34 35 36 37 38 39 40 41 42 43 44 45 46 47 48 49 50
597
ASUS43 KMPX 192001
RWRMN
WEATHER ROUNDUP FOR MINNESOTA
NATIONAL WEATHER SERVICE TWIN CITIES/CHANHASSEN MN
200 PM CST SUN NOV 19 2017


NOTE: "FAIR" INDICATES FEW OR NO CLOUDS BELOW 12,000 FEET WITH NO
SIGNIFICANT WEATHER AND/OR OBSTRUCTIONS TO VISIBILITY. N/A MEANS
CURRENT SKY AND/OR WEATHER CONDITIONS ARE NOT AVAILABLE.

MNZ060>063-068>070-192100-
   Twin Cities Metro

CITY           SKY/WX    TMP DP  RH WIND       PRES   REMARKS
TWIN CITIES    MOSUNNY   38  21  50 SW9       29.94F
ST PAUL        MOSUNNY   38  19  46 S10       29.95F
CRYSTAL        SUNNY     38  18  44 SW13      29.92F
BLAINE         MOSUNNY   37  19  48 SW6       29.93F
LAKEVILLE      SUNNY     39  23  52 SW7       29.94F
EDEN PRAIRIE   SUNNY     40  21  46 SW9       29.93F
SOUTH ST PAUL  MOSUNNY   39  20  45 S12       29.94F
LAKE ELMO      FAIR      34  21  60 S6        29.95F WCI  29
$$
MNZ001>005-007-008-013>017-022>024-027-028-192100-
   Northwest Minnesota

CITY           SKY/WX    TMP DP  RH WIND       PRES   REMARKS
BEMIDJI        SUNNY     30  18  59 S3        29.81F
HALLOCK        SUNNY     25  19  80 S6        29.81F WCI  18
ROSEAU         SUNNY     27  18  69 CALM      29.82S
WARROAD        SUNNY     25  16  68 CALM      29.83S
CROOKSTON      SUNNY     36  25  64 SW8       29.81F
FOSSTON        SUNNY     36  25  64 SW10      29.81S
DETROIT LAKES  SUNNY     37  27  65 SW8       29.81F
MOORHEAD       SUNNY     43  23  45 SW9       29.82F
PARK RAPIDS    SUNNY     38  22  52 SW8       29.80F
MAHNOMEN       FAIR      37  24  60 SW10      29.81S
$$
MNZ006-009>011-018-025>026-192100-
   North Central Minnesota

CITY           SKY/WX    TMP DP  RH WIND       PRES   REMARKS
BAUDETTE       CLOUDY    20  12  71 S3        29.82S
FLAG ISLAND    CLOUDY    21  12  68 SE7       29.82S WCI  13
INTL FALLS     PTSUNNY   20  10  65 SW3       29.83F
WASKISH        CLOUDY    25  14  63 SE3       29.82F
BIG FORK       CLOUDY    23  12  63 CALM      29.83F
LONGVILLE      SUNNY     30  18  59 SW3       29.83F
GRAND RAPIDS   CLOUDY    24  14  65 S7        29.86F WCI  16
CRANE LAKE     CLOUDY    18   9  68 S5        29.87F WCI  11
ORR            LGT SNOW  18  10  73 SW3       29.82F
COOK           LGT SNOW  18  14  86 CALM      29.84F
WALKER         FAIR      31  18  58 S6        29.82F WCI  25
$$
MNZ012-019>021-037-192100-
   Northeast Minnesota

CITY           SKY/WX    TMP DP  RH WIND       PRES   REMARKS
DULUTH         CLOUDY    22  13  68 W8        29.86F WCI  12
ELY            MOSUNNY   19   9  63 W9        29.83F WCI   9
HIBBING        CLOUDY    19  12  74 CALM      29.84F
EVELETH        LGT SNOW  18  12  79 SW3       29.86F
DULUTH HARBOR  CLOUDY    27  16  63 SW7       29.92F WCI  19
TWO HARBORS    FLURRIES  27  16  63 W9        29.86F WCI  17
SILVER BAY     PTSUNNY   25  12  58 W7        29.85F WCI  17
GRAND MARAIS     N/A     25  12  58 W10G20    29.87S WCI  15
G MARAIS ARPRT CLOUDY    18   3  53 W6        29.79S WCI   9
$$
MNZ029>031-032-039>041-046>048-054>057-064-192100-
   West Central Minnesota

CITY           SKY/WX    TMP DP  RH WIND       PRES   REMARKS
FERGUS FALLS   SUNNY     43  25  49 SW10      29.85F
WHEATON        SUNNY     48  21  34 SW15      29.85F
MORRIS         SUNNY     46  27  46 W15       29.84F
ALEXANDRIA     SUNNY     42  25  50 SW13      29.85F
ELBOW LAKE     FAIR      42  28  56 SW10      29.84F
WADENA         SUNNY     37  23  56 SW10      29.82F
GLENWOOD       SUNNY     43  27  52 SW12      29.86F
APPLETON       SUNNY     52  23  32 W16       29.86F
BENSON         SUNNY     48  23  37 W15       29.88F
ORTONVILLE     SUNNY     50  23  34 MISG      29.85F
MADISON        SUNNY     54  25  32 SW16      29.88F
WILLMAR        FAIR      46  30  53 SW10      29.90F
$$
MNZ033>034-036-042>043-049>051-058-059-192100-
   Central Minnesota

CITY           SKY/WX    TMP DP  RH WIND       PRES   REMARKS
ST CLOUD       SUNNY     39  23  52 S13       29.89F
SAUK CENTRE    FAIR      40  26  56 SW9       29.86F
PAYNESVILLE    SUNNY     41  29  63 SW9       29.89F
AITKIN         SUNNY     30  18  59 SW3       29.84F
PINE RIVER     SUNNY     34  19  55 SW5       29.86F WCI  30
BRAINERD       SUNNY     36  19  50 S10       29.85F
STAPLES        SUNNY     37  21  52 SW7       29.83F
LONG PRAIRIE   FAIR      37  25  60 S10       29.87F
LITTLE FALLS   SUNNY     36  18  48 S7        29.87F
LITCHFIELD     SUNNY     45  27  49 SW6       29.90F
BUFFALO        SUNNY     39  23  53 S7        29.92F
MAPLE LAKE     SUNNY     41  27  57 S9        29.91F
HUTCHINSON     SUNNY     45  28  51 SW8       29.92F
$$
MNZ037-044-045-052-053-192100-
   East Central Minnesota

CITY           SKY/WX    TMP DP  RH WIND       PRES   REMARKS
PRINCETON      SUNNY     37  19  48 S8        29.90F
MORA           SUNNY     32  18  55 SW5       29.92F WCI  27
CAMBRIDGE      SUNNY     37  21  52 SW8       29.91F
RUSH CITY      SUNNY     33  18  53 SW8       29.91F WCI  26
MOOSE LAKE     CLOUDY    30  14  51 SW6       29.87F WCI  24
HINCKLEY       CLOUDY    34  19  55 S9        29.90F WCI  26
CLOQUET        CLOUDY    25  12  58 S5        29.87F WCI  19
MCGREGOR       MOSUNNY   32  19  59 S7        29.87F WCI  26
$$
MNZ071>073-080-081-089-090-097-098-192100-
   Southwest Minnesota

CITY           SKY/WX    TMP DP  RH WIND       PRES   REMARKS
MONTEVIDEO     SUNNY     52  25  35 W8G16     29.89F
GRANITE FALLS  SUNNY     52  27  37 SW15      29.91F
CANBY          SUNNY     51  23  33 SW14G26   29.90F
MARSHALL       CLOUDY    51  24  34 W21       29.90F
REDWOOD FALLS  SUNNY     50  22  33 W15       29.90F
OLIVIA         SUNNY     50  28  43 W12       29.89F
PIPESTONE      SUNNY     48  21  34 SW15      29.92F
WINDOM         SUNNY     48  27  43 SW15      29.94F
WORTHINGTON    SUNNY     46  25  43 SW10G20   29.95F
JACKSON        SUNNY     46  25  42 W16       29.96F
SLAYTON        SUNNY     47  26  44 SW15      29.94F
$$
MNZ065>067-074>077-082>085-091>093-192100-
   South Central Minnesota

CITY           SKY/WX    TMP DP  RH WIND       PRES   REMARKS
MANKATO        SUNNY     44  25  47 SW10      29.95F
NEW ULM        SUNNY     48  23  37 CALM      29.92F
ST JAMES       SUNNY     50  25  37 SW15      29.95F
FAIRMONT       SUNNY     48  26  42 SW17G23   29.96F
GLENCOE        SUNNY     44  26  49 SW6       29.92F
FARIBAULT      SUNNY     41  23  48 S12G17    29.96F
OWATONNA       SUNNY     41  25  52 S16       29.96F
WASECA         SUNNY     41  27  56 SW13      29.97F
ALBERT LEA     SUNNY     41  23  48 SW8       29.97F
$$
MNZ078>079-086>088-094>096-192100-
   Southeast Minnesota

CITY           SKY/WX    TMP DP  RH WIND       PRES   REMARKS
ROCHESTER      SUNNY     37  23  56 SW16      29.97F
RED WING       PTSUNNY   37  16  41 SW9       29.96F
STANTON        SUNNY     40  23  49 SW12      29.94F
DODGE CENTER   SUNNY     37  23  56 SW15      29.96F
WINONA         MOSUNNY   36  18  48 SW7       30.00F
AUSTIN         SUNNY     39  21  48 SW10      29.99F
PRESTON        SUNNY     36  20  52 SW14      29.99F
$$
ABBREVIATIONS USED IN REMARKS
   TC - TEMPERATURES IN CELSIUS
  WCI - WIND CHILL INDEX
   HX - HEAT INDEX
  VSB - VISIBILITY
$$




USA.gov is the U.S. government's official web portal to all federal, state and local government web resources and services.